Weather History for Lee's Summit, MO

Change the Weather History Date:

Tuesday, December 25, 2012

  Actual Average (KMKC) Record (KMKC)
Temperature  
Mean Temperature 18 °F -  
Max Temperature 21 °F 38 °F 53 °F (1999)
Min Temperature 14 °F 21 °F 5 °F (2000)
Degree Days  
Heating Degree Days 46    
Moisture  
Dew Point 12 °F    
Average Humidity 77    
Maximum Humidity 86    
Minimum Humidity 62    
Precipitation  
Precipitation 0.00 in - - ()
Sea Level Pressure  
Sea Level Pressure 30.25 in    
Wind  
Wind Speed 14 mph (NNE)    
Max Wind Speed 22 mph    
Max Gust Speed 28 mph    
Visibility 9 miles    
Events      
Averages and records for this station are not official NWS values.
T = Trace of Precipitation, MM = Missing Value Source: NWS Daily Summary

Daily Weather History Graph

Daily Weather History Graph

Search for Another Location

Airport:

Trip Planner

Search our weather history database for the weather conditions in past years. The results will help you decide how hot, cold, wet, or windy it might be!

Date:

Astronomy

Dec. 25, 2012 Rise Set
Actual Time 7:34 AM CST 5:01 PM CST
Civil Twilight 7:04 AM CST 5:31 PM CST
Nautical Twilight 6:31 AM CST 6:04 PM CST
Astronomical Twilight 5:58 AM CST 6:37 PM CST
Moon 3:09 PM CST (12/25) 5:08 AM CST (12/25)
Length of Visible Light 10h 26m
Length of Day
9h 26m
Waxing Gibbous, 94% of the Moon is Illuminated
Dec 25
Waxing Gibbous
Dec 28
Full
Jan 4
Last Quarter
Jan 11
New
Jan 18
First Quarter

Hourly Weather History & Observations

Time (CST) Temp. Windchill Dew Point Humidity Pressure Visibility Wind Dir Wind Speed Gust Speed Precip Events Conditions
12:53 AM 18.0 °F 5.4 °F 12.0 °F 78% 30.19 in 10.0 mi NNE 11.5 mph - N/A   Clear
1:51 AM 17.6 °F 5.0 °F 12.2 °F 79% 30.14 in 10.0 mi NE 11.5 mph - N/A   Mostly Cloudy
1:53 AM 18.0 °F 4.2 °F 12.9 °F 81% 30.19 in 10.0 mi NE 13.8 mph - N/A   Mostly Cloudy
2:53 AM 19.0 °F 5.0 °F 14.0 °F 81% 30.21 in 10.0 mi NE 15.0 mph - N/A   Overcast
3:53 AM 19.0 °F 5.0 °F 14.0 °F 81% 30.21 in 10.0 mi NE 15.0 mph - N/A   Overcast
4:53 AM 19.0 °F 6.1 °F 14.0 °F 81% 30.23 in 10.0 mi NNE 12.7 mph - N/A   Overcast
5:53 AM 18.0 °F 5.4 °F 12.9 °F 81% 30.23 in 10.0 mi NNE 11.5 mph - N/A   Overcast
6:53 AM 18.0 °F 4.8 °F 14.0 °F 84% 30.24 in 10.0 mi North 12.7 mph - N/A   Overcast
7:24 AM 17.6 °F 4.3 °F 14.0 °F 86% 30.22 in 10.0 mi NNE 12.7 mph - N/A   Overcast
7:53 AM 18.0 °F 4.2 °F 14.0 °F 84% 30.29 in 9.0 mi North 13.8 mph - N/A   Overcast
8:53 AM 18.0 °F 4.2 °F 14.0 °F 84% 30.32 in 7.0 mi North 13.8 mph - N/A   Overcast
9:53 AM 18.0 °F 5.4 °F 14.0 °F 84% 30.34 in 5.0 mi North 11.5 mph 19.6 mph N/A   Overcast
10:53 AM 18.0 °F 1.3 °F 14.0 °F 84% 30.26 in 5.0 mi North 20.7 mph 25.3 mph N/A   Overcast
11:53 AM 18.0 °F 2.2 °F 14.0 °F 84% 30.26 in 6.0 mi North 18.4 mph - N/A   Overcast
12:53 PM 19.9 °F 4.3 °F 15.1 °F 81% 30.25 in 10.0 mi NNE 19.6 mph - N/A   Overcast
1:13 PM 19.4 °F 4.5 °F 15.8 °F 86% 30.19 in 10.0 mi North 17.3 mph 24.2 mph N/A   Overcast
1:53 PM 21.0 °F 7.1 °F 14.0 °F 74% 30.24 in 10.0 mi North 16.1 mph 23.0 mph N/A   Overcast
2:38 PM 21.2 °F 5.2 °F 12.2 °F 68% 30.19 in 10.0 mi North 21.9 mph 27.6 mph N/A   Scattered Clouds
2:53 PM 21.0 °F 6.2 °F 12.0 °F 68% 30.25 in 10.0 mi NNE 18.4 mph 24.2 mph N/A   Partly Cloudy
3:53 PM 21.0 °F 6.6 °F 12.0 °F 68% 30.29 in 10.0 mi North 17.3 mph - N/A   Overcast
4:53 PM 21.0 °F 6.6 °F 10.9 °F 65% 30.30 in 10.0 mi North 17.3 mph 25.3 mph N/A   Overcast
5:53 PM 19.9 °F 5.7 °F 9.0 °F 62% 30.30 in 10.0 mi North 16.1 mph - N/A   Mostly Cloudy
6:53 PM 18.0 °F 3.1 °F 7.0 °F 62% 30.31 in 10.0 mi North 16.1 mph - N/A   Scattered Clouds
7:53 PM 17.1 °F 1.5 °F 7.0 °F 65% 30.30 in 10.0 mi North 17.3 mph 23.0 mph N/A   Partly Cloudy
8:53 PM 16.0 °F 2.3 °F 7.0 °F 68% 30.28 in 10.0 mi North 12.7 mph 23.0 mph N/A   Clear
9:53 PM 14.0 °F -2.5 °F 7.0 °F 74% 30.28 in 10.0 mi North 17.3 mph - N/A   Clear